This is the latest recevied weather packets stored in our database for station/object WC4PEM-11. If no packets are shown the sender has not sent any weather packets the latest 10 day(s).
| Time | Temp. | Humidity | Pressure | Rain* | Wind** | Luminosity | Snow |
|---|---|---|---|---|---|---|---|
| 1777576097 | 31.11° C | 50% | 1011.2 hPa | 0 mm | - | - | - |
| 1777575944 | 31.11° C | 51% | 1011.3 hPa | 0 mm | - | - | - |
| 1777575797 | 31.11° C | 51% | 1011.3 hPa | 0 mm | - | - | - |
| 1777575497 | 30.56° C | 49% | 1011.1 hPa | 0 mm | - | - | - |
| 1777575197 | 30.56° C | 50% | 1011.1 hPa | 0 mm | - | - | - |
| 1777574897 | 30.56° C | 50% | 1011.2 hPa | 0 mm | - | - | - |
| 1777574643 | 30.56° C | 54% | 1011.5 hPa | 0 mm | - | - | - |
| 1777574597 | 30.56° C | 51% | 1011.4 hPa | 0 mm | - | - | - |
| 1777574418 | 31.11° C | 51% | 1011.3 hPa | 0 mm | - | - | - |
| 1777574383 | 31.11° C | 51% | 1011.3 hPa | 0 mm | - | - | - |
| 1777574297 | 31.11° C | 51% | 1011.3 hPa | 0 mm | - | - | - |
| 1777573997 | 30.56° C | 54% | 1011.5 hPa | 0 mm | - | - | - |
| 1777573697 | 30° C | 53% | 1011.5 hPa | 0 mm | - | - | - |
| 1777573397 | 30.56° C | 53% | 1011.4 hPa | 0 mm | - | - | - |
| 1777573097 | 30.56° C | 50% | 1011.5 hPa | 0 mm | - | - | - |
| 1777572797 | 30.56° C | 56% | 1011.5 hPa | 0 mm | - | - | - |
| 1777572733 | 30.56° C | 55% | 1011.6 hPa | 0 mm | - | - | - |
| 1777572498 | 30.56° C | 54% | 1011.6 hPa | 0 mm | - | - | - |
| 1777572197 | 30.56° C | 55% | 1011.6 hPa | 0 mm | - | - | - |
| 1777572096 | 30.56° C | 54% | 1011.7 hPa | 0 mm | - | - | - |
| 1777571897 | 30.56° C | 54% | 1011.7 hPa | 0 mm | - | - | - |
| 1777571597 | 30.56° C | 52% | 1011.9 hPa | 0 mm | - | - | - |
| 1777571344 | 30.56° C | 52% | 1012 hPa | 0 mm | - | - | - |
| 1777571297 | 30.56° C | 52% | 1011.9 hPa | 0 mm | - | - | - |
| 1777570997 | 30.56° C | 52% | 1012 hPa | 0 mm | - | - | - |
* Rain latest hour (hover to see other rain measurements)
** Current wind speed in m/s (hover to see current wind gust speed)